Regional Weather Roundup
Issued by NWS

Home | Current Version | Previous Version | Text Only | Print | Product List | Glossary On
Versions: 1 2 3 4 5 6 7 8 9 10 11 12 13 14 15 16 17 18 19 20 21 22 23 24 25 26 27 28 29 30 31 32 33 34 35 36 37 38 39 40 41 42 43 44 45 46 47 48 49 50
000
ASUS44 KOUN 250810
RWROK

WEATHER ROUNDUP FOR OKLAHOMA
NATIONAL WEATHER SERVICE NORMAN OK
300 AM CDT FRI APR 25 2014

NOTE: "FAIR" INDICATES FEW OR NO CLOUDS BELOW 12,000 FEET WITH NO
      SIGNIFICANT WEATHER AND/OR OBSTRUCTIONS TO VISIBILITY.

OKZ001>007-009>012-014-015-017-250900-
NORTHWEST OKLAHOMA AND THE PANHANDLE

CITY           SKY/WX    TMP DP  RH WIND       PRES   REMARKS
GAGE           CLEAR     53  33  46 S10       29.92F
ENID/VANCE AFB CLEAR     48  44  84 S8        29.93S
$$

OKZ016-021>023-033>039-044-045-250900-
SOUTHWEST OKLAHOMA

CITY           SKY/WX    TMP DP  RH WIND       PRES   REMARKS
LAWTON/REGL    CLEAR     46  43  89 CALM      29.95S
LAWTON/FT SILL CLEAR     53  41  63 NE1       29.94S
FREDERICK      CLEAR     50  39  66 E7        29.92R
CLINTON        CLEAR     52  38  58 SE7       29.96S
HOBART         CLEAR     52  41  66 CALM      29.95S
ALTUS AFB      CLEAR     46  38  72 E3        29.94S
$$

OKZ018>020-024>031-250900-
CENTRAL OKLAHOMA

CITY           SKY/WX    TMP DP  RH WIND       PRES   REMARKS
OKLAHOMA CITY  CLEAR     50  39  66 S3        29.94F
OKC/WILEY POST CLEAR     55  35  47 SE9       29.95F
OKC/TINKER AFB CLEAR     52  39  62 SE8       29.95F
STILLWATER     CLEAR     47  32  56 CALM      29.94F
GUTHRIE        CLEAR     49  37  63 SE5       29.94F
$$

OKZ008-013-054>072-250900-
NORTHEAST OKLAHOMA

CITY           SKY/WX    TMP DP  RH WIND       PRES   REMARKS
TULSA          CLEAR     50  43  77 S3        29.93S
TULSA/JONES    CLEAR     44  42  93 CALM      29.94S
PONCA CITY     CLEAR     50  37  61 CALM      29.93S
BARTLESVILLE   CLEAR     44  39  82 VRB3      29.93F
MUSKOGEE       CLEAR     48  41  76 CALM      29.96S
$$

OKZ032-040>043-046>053-073>077-250900-
SOUTH CENTRAL/SOUTHEAST OKLAHOMA

CITY           SKY/WX    TMP DP  RH WIND       PRES   REMARKS
ARDMORE/DWNTWN   N/A     52  41  66 CALM      29.96F
MCALESTER      PTCLDY    45  41  86 CALM      29.96S
$$




USA.gov is the U.S. government's official web portal to all federal, state and local government web resources and services.